Regional Weather Roundup
Issued by NWS Cleveland, OH

Home | Current Version | Previous Version | Graphics & Text | Print | Product List | Glossary On
Versions: 1 2 3 4 5 6 7 8 9 10 11 12 13 14 15 16 17 18 19 20 21 22 23 24 25 26 27 28 29 30 31 32 33 34 35 36 37 38 39 40 41 42 43 44 45 46 47 48 49 50
000
ASUS41 KCLE 291000
RWRCLE
OHIO REGIONAL WEATHER ROUNDUP
NATIONAL WEATHER SERVICE WILMINGTON, OH
600 AM EDT THU JUN 29 2017

NOTE: "FAIR" INDICATES FEW OR NO CLOUDS BELOW 12,000 FEET WITH NO
SIGNIFICANT WEATHER AND/OR OBSTRUCTIONS TO VISIBILITY.

OHZ001>008-015>018-024>027-034-035-043-044-291100-
   NORTHWEST OHIO

CITY           SKY/WX    TMP DP  RH WIND       PRES   REMARKS
DEFIANCE       FAIR      67  55  65 S10       29.89F
FINDLAY        MOCLDY    69  54  58 S13       29.93F
TOLEDO EXPRESS FAIR      69  56  62 S10       29.89F
TOLEDO EXEC    MOCLDY    71  56  58 S14       29.91F
LIMA           FAIR      68  56  65 S12       29.95S
$$

OHZ009>014-019>023-028>033-038-089-291100-
   NORTHEAST OHIO

CITY           SKY/WX    TMP DP  RH WIND       PRES   REMARKS
CLE-HOPKINS    MOCLDY    69  53  56 S12       29.99F
CLE-LAKEFRONT  FAIR      68  52  56 SE17      29.96S
CUY CO. ARPT   NOT AVBL
LORAIN-ELYRIA  FAIR      62  50  64 S9        29.98S
ASHTABULA      FAIR      63  54  72 S8        30.01S
AKRON-CANTON   FAIR      61  51  70 S9        30.04R
WOOSTER        NOT AVBL
MANSFIELD      FAIR      65  53  65 S13       30.01S
YOUNGSTOWN     MOCLDY    61  52  72 S10       30.04S
$$

OHZ042-051>053-060>062-070>072-077>081-291100-
  SOUTHWEST OHIO

CITY           SKY/WX    TMP DP  RH WIND       PRES   REMARKS
CINC-COVINGTON MOCLDY    65  57  75 S8        30.03R
CINC-LUNKEN    FAIR      60  58  92 CALM      30.03R
HAMILTON       FAIR      70  57  63 SW5       30.02R
DAYTON         NOT AVBL
WRIGHT-PAT AFB NOT AVBL
DAYTON GENERAL FAIR      63  55  75 S9        30.01R
WILMINGTON     FAIR      64  57  78 SW8       30.03R
$$

OHZ036-037-039>041-045>050-054>059-063>069-073>076-082>088-291100-
  CENTRAL AND SOUTHEAST OHIO

CITY           SKY/WX    TMP DP  RH WIND       PRES   REMARKS
COLUMBUS       FAIR      64  56  75 CALM      30.02S
OSU AIRPORT    FAIR      66  56  70 S12G20    30.01S
BOLTON FIELD   NOT AVBL
RICKENBACK AFB NOT AVBL
NEWARK         FAIR      56  53  90 CALM      30.03S
MARION         FAIR      62  54  74 S7        30.00S
LANCASTER      FAIR      62  56  80 SE7       30.04R
ZANESVILLE     FAIR      61  53  75 S6        30.06R
NEW PHILLY     FAIR      57  54  89 E6        30.06R
$$




USA.gov is the U.S. government's official web portal to all federal, state and local government web resources and services.